| time (UTC) | temp F | wind direction | speed MPH | gust MPH | rain 1hr in | rain 24hr in | rain mn in | humidity % | barometer mb |
| 20260505225727 | 53 | 166 | 4.0 | 6.0 | 0.00 | 0.00 | 0.00 | 71 | 1013.9 |
| 20260505225225 | 53 | 29 | 2.0 | 4.0 | 0.00 | 0.00 | 0.00 | 71 | 1014.1 |
| 20260505224720 | 53 | 274 | 3.0 | 6.0 | 0.00 | 0.00 | 0.00 | 71 | 1013.9 |
| 20260505224218 | 53 | 3 | 3.0 | 4.0 | 0.00 | 0.00 | 0.00 | 71 | 1013.9 |
| 20260505223715 | 53 | 336 | 2.0 | 3.0 | 0.00 | 0.00 | 0.00 | 71 | 1013.8 |
| 20260505223211 | 53 | 148 | 2.0 | 2.0 | 0.00 | 0.00 | 0.00 | 71 | 1013.9 |
| 20260505222707 | 53 | 306 | 4.0 | 7.0 | 0.00 | 0.00 | 0.00 | 71 | 1013.8 |
| 20260505222203 | 53 | 315 | 2.0 | 3.0 | 0.00 | 0.00 | 0.00 | 71 | 1013.7 |
| 20260505221701 | 53 | 273 | 0.0 | 0.0 | 0.00 | 0.00 | 0.00 | 72 | 1013.5 |
| 20260505221157 | 53 | 132 | 1.0 | 2.0 | 0.00 | 0.00 | 0.00 | 71 | 1013.5 |
| 20260505220654 | 54 | 211 | 3.0 | 7.0 | 0.00 | 0.00 | 0.00 | 71 | 1013.4 |
| 20260505220152 | 54 | 315 | 4.0 | 4.0 | 0.00 | 0.00 | 0.00 | 71 | 1013.5 |
| 20260505215650 | 54 | 35 | 2.0 | 6.0 | 0.00 | 0.00 | 0.00 | 71 | 1013.6 |
| 20260505215147 | 54 | 320 | 2.0 | 4.0 | 0.00 | 0.00 | 0.00 | 71 | 1013.6 |
| 20260505214645 | 54 | 343 | 4.0 | 7.0 | 0.00 | 0.00 | 0.00 | 70 | 1013.2 |
| 20260505214142 | 54 | 234 | 1.0 | 1.0 | 0.00 | 0.00 | 0.00 | 70 | 1012.7 |
| 20260505213640 | 54 | 88 | 4.0 | 6.0 | 0.00 | 0.00 | 0.00 | 70 | 1012.6 |
| 20260505213136 | 54 | 219 | 4.0 | 8.0 | 0.00 | 0.00 | 0.00 | 70 | 1012.9 |
| 20260505212632 | 54 | 197 | 4.0 | 6.0 | 0.00 | 0.00 | 0.00 | 70 | 1013.0 |
| 20260505212130 | 54 | 41 | 5.0 | 8.0 | 0.00 | 0.00 | 0.00 | 70 | 1013.0 |
| 20260505211627 | 55 | 236 | 1.0 | 1.0 | 0.00 | 0.00 | 0.00 | 69 | 1013.1 |
| 20260505211124 | 55 | 326 | 0.0 | 1.0 | 0.00 | 0.00 | 0.00 | 70 | 1012.4 |
| 20260505210621 | 55 | 63 | 3.0 | 4.0 | 0.00 | 0.00 | 0.00 | 69 | 1012.8 |
| 20260505210117 | 55 | 3 | 4.0 | 6.0 | 0.00 | 0.00 | 0.00 | 69 | 1012.5 |
| 20260505205615 | 55 | 337 | 5.0 | 7.0 | 0.00 | 0.00 | 0.00 | 71 | 1012.4 |
| 20260505205113 | 55 | 347 | 1.0 | 1.0 | 0.00 | 0.00 | 0.00 | 71 | 1013.0 |
| 20260505204609 | 55 | 79 | 2.0 | 3.0 | 0.00 | 0.00 | 0.00 | 71 | 1013.5 |
| 20260505204107 | 55 | 92 | 1.0 | 2.0 | 0.00 | 0.00 | 0.00 | 71 | 1013.7 |
| 20260505203604 | 55 | 27 | 4.0 | 8.0 | 0.00 | 0.00 | 0.00 | 71 | 1013.3 |
| 20260505203101 | 55 | 324 | 4.0 | 6.0 | 0.00 | 0.00 | 0.00 | 70 | 1012.9 |
| 20260505202556 | 55 | 356 | 5.0 | 9.0 | 0.00 | 0.00 | 0.00 | 71 | 1012.8 |
| 20260505202053 | 55 | 48 | 2.0 | 6.0 | 0.00 | 0.00 | 0.00 | 71 | 1012.6 |
| 20260505201549 | 55 | 301 | 4.0 | 7.0 | 0.00 | 0.00 | 0.00 | 71 | 1012.6 |
| 20260505201047 | 55 | 86 | 3.0 | 4.0 | 0.00 | 0.00 | 0.00 | 71 | 1012.5 |
| 20260505200545 | 55 | 90 | 7.0 | 15.0 | 0.00 | 0.00 | 0.00 | 71 | 1012.4 |
| 20260505200041 | 55 | 81 | 2.0 | 3.0 | 0.00 | 0.00 | 0.00 | 72 | 1012.6 |
| 20260505195537 | 55 | 297 | 2.0 | 3.0 | 0.00 | 0.00 | 0.00 | 72 | 1012.4 |
| 20260505195035 | 55 | 4 | 4.0 | 6.0 | 0.00 | 0.00 | 0.00 | 74 | 1012.6 |
| 20260505194532 | 55 | 14 | 6.0 | 9.0 | 0.00 | 0.00 | 0.00 | 74 | 1012.8 |
| 20260505194027 | 55 | 36 | 3.0 | 4.0 | 0.00 | 0.00 | 0.00 | 75 | 1012.6 |
| 20260505193525 | 55 | 227 | 3.0 | 8.0 | 0.00 | 0.00 | 0.00 | 74 | 1012.4 |
| 20260505193022 | 55 | 337 | 2.0 | 2.0 | 0.00 | 0.00 | 0.00 | 75 | 1012.5 |
| 20260505192521 | 55 | 229 | 4.0 | 4.0 | 0.00 | 0.00 | 0.00 | 75 | 1012.4 |
| 20260505192018 | 55 | 84 | 2.0 | 3.0 | 0.00 | 0.00 | 0.00 | 76 | 1012.4 |
| 20260505191516 | 55 | 21 | 4.0 | 7.0 | 0.00 | 0.00 | 0.00 | 76 | 1012.3 |
| 20260505191014 | 55 | 254 | 2.0 | 2.0 | 0.00 | 0.00 | 0.00 | 77 | 1012.3 |
| 20260505190508 | 55 | 333 | 4.0 | 8.0 | 0.00 | 0.00 | 0.00 | 77 | 1012.1 |
| 20260505190004 | 55 | 334 | 4.0 | 7.0 | 0.00 | 0.00 | 0.00 | 77 | 1012.3 |
| 20260505185501 | 55 | 296 | 1.0 | 1.0 | 0.00 | 0.00 | 0.00 | 77 | 1012.3 |
| 20260505184957 | 56 | 238 | 1.0 | 2.0 | 0.00 | 0.00 | 0.00 | 77 | 1012.0 |
| 20260505184455 | 56 | 229 | 2.0 | 4.0 | 0.00 | 0.00 | 0.00 | 77 | 1012.0 |
| 20260505183951 | 56 | 342 | 4.0 | 6.0 | 0.00 | 0.00 | 0.00 | 77 | 1012.0 |
| 20260505183448 | 56 | 314 | 5.0 | 9.0 | 0.00 | 0.00 | 0.00 | 77 | 1012.0 |
| 20260505182944 | 56 | 331 | 5.0 | 8.0 | 0.00 | 0.00 | 0.00 | 77 | 1012.0 |
| 20260505182442 | 56 | 329 | 6.0 | 11.0 | 0.00 | 0.00 | 0.00 | 76 | 1011.9 |
| 20260505181938 | 57 | 221 | 5.0 | 8.0 | 0.00 | 0.00 | 0.00 | 76 | 1011.9 |
| 20260505181435 | 57 | 32 | 1.0 | 2.0 | 0.00 | 0.00 | 0.00 | 76 | 1011.8 |
| 20260505180932 | 57 | 305 | 3.0 | 6.0 | 0.00 | 0.00 | 0.00 | 75 | 1011.5 |
| 20260505180428 | 57 | 46 | 2.0 | 3.0 | 0.00 | 0.00 | 0.00 | 75 | 1011.8 |
| 20260505175925 | 57 | 61 | 2.0 | 3.0 | 0.00 | 0.00 | 0.00 | 75 | 1011.5 |
| 20260505175421 | 57 | 10 | 3.0 | 4.0 | 0.00 | 0.00 | 0.00 | 76 | 1011.2 |
| 20260505174918 | 57 | 232 | 2.0 | 4.0 | 0.00 | 0.00 | 0.00 | 76 | 1011.2 |
| 20260505174416 | 57 | 320 | 3.0 | 6.0 | 0.00 | 0.00 | 0.00 | 76 | 1011.1 |
| 20260505173912 | 57 | 325 | 5.0 | 9.0 | 0.00 | 0.00 | 0.00 | 77 | 1011.0 |
| 20260505173408 | 57 | 51 | 2.0 | 3.0 | 0.00 | 0.00 | 0.00 | 77 | 1011.0 |
| 20260505172905 | 57 | 9 | 1.0 | 2.0 | 0.00 | 0.00 | 0.00 | 77 | 1010.8 |
| 20260505172403 | 57 | 0 | 5.0 | 7.0 | 0.00 | 0.00 | 0.00 | 77 | 1010.7 |
| 20260505171902 | 57 | 25 | 5.0 | 10.0 | 0.00 | 0.00 | 0.00 | 77 | 1010.9 |
| 20260505171359 | 57 | 41 | 2.0 | 3.0 | 0.00 | 0.00 | 0.00 | 78 | 1010.4 |
| 20260505170856 | 57 | 18 | 4.0 | 7.0 | 0.00 | 0.00 | 0.00 | 78 | 1010.6 |
| 20260505170353 | 57 | 335 | 2.0 | 2.0 | 0.00 | 0.00 | 0.00 | 78 | 1010.6 |
| 20260505165848 | 57 | 316 | 6.0 | 10.0 | 0.00 | 0.00 | 0.00 | 79 | 1010.6 |
| 20260505165344 | 57 | 5 | 4.0 | 4.0 | 0.00 | 0.00 | 0.00 | 78 | 1010.5 |
| 20260505164840 | 57 | 20 | 4.0 | 8.0 | 0.00 | 0.00 | 0.00 | 78 | 1010.4 |
| 20260505164337 | 58 | 105 | 3.0 | 3.0 | 0.00 | 0.00 | 0.00 | 78 | 1010.3 |
| 20260505163835 | 57 | 97 | 2.0 | 2.0 | 0.00 | 0.00 | 0.00 | 79 | 1009.8 |
| 20260505163334 | 57 | 211 | 8.0 | 11.0 | 0.00 | 0.00 | 0.00 | 80 | 1009.9 |
| 20260505162832 | 57 | 2 | 5.0 | 10.0 | 0.00 | 0.00 | 0.00 | 80 | 1009.7 |
| 20260505162327 | 57 | 83 | 3.0 | 3.0 | 0.00 | 0.00 | 0.00 | 80 | 1009.8 |
| 20260505161825 | 58 | 189 | 4.0 | 7.0 | 0.00 | 0.00 | 0.00 | 80 | 1009.5 |
| 20260505161322 | 58 | 1 | 8.0 | 14.0 | 0.00 | 0.00 | 0.00 | 80 | 1009.2 |
| 20260505160819 | 58 | 29 | 3.0 | 6.0 | 0.00 | 0.00 | 0.00 | 80 | 1008.9 |
| 20260505160317 | 58 | 357 | 0.0 | 1.0 | 0.00 | 0.00 | 0.00 | 80 | 1008.8 |
| 20260505153256 | 61 | 238 | 4.0 | 4.0 | 0.00 | 0.00 | 0.00 | 81 | 1008.0 |
| 20260505152753 | 61 | 2 | 4.0 | 7.0 | 0.00 | 0.00 | 0.00 | 81 | 1008.2 |
| 20260505152250 | 62 | 237 | 2.0 | 3.0 | 0.00 | 0.00 | 0.00 | 81 | 1007.8 |
| 20260505151749 | 62 | 15 | 3.0 | 4.0 | 0.00 | 0.00 | 0.00 | 81 | 1007.8 |
| 20260505151247 | 62 | 59 | 2.0 | 3.0 | 0.00 | 0.00 | 0.00 | 80 | 1007.5 |
| 20260505150744 | 63 | 33 | 5.0 | 9.0 | 0.00 | 0.00 | 0.00 | 80 | 1007.4 |
| 20260505150241 | 64 | 235 | 3.0 | 6.0 | 0.00 | 0.00 | 0.00 | 79 | 1007.4 |
| 20260505140211 | 69 | 121 | 1.0 | 1.0 | 0.00 | 0.00 | 0.00 | 82 | 1005.6 |
| 20260505130135 | 68 | 230 | 2.0 | 3.0 | 0.00 | 0.00 | 0.00 | 83 | 1005.5 |
| 20260505124625 | 68 | 72 | 3.0 | 3.0 | 0.00 | 0.00 | 0.00 | 82 | 1005.3 |
| 20260505124121 | 68 | 232 | 0.0 | 0.0 | 0.00 | 0.00 | 0.00 | 81 | 1005.2 |
| 20260505123617 | 68 | 39 | 1.0 | 1.0 | 0.00 | 0.00 | 0.00 | 80 | 1005.1 |
| 20260505123114 | 69 | 234 | 1.0 | 1.0 | 0.00 | 0.00 | 0.00 | 80 | 1005.3 |
| 20260505122611 | 69 | 207 | 0.0 | 0.0 | 0.00 | 0.00 | 0.00 | 80 | 1005.2 |
| 20260505122108 | 69 | 236 | 0.0 | 0.0 | 0.00 | 0.00 | 0.00 | 79 | 1005.0 |
| 20260505121604 | 69 | 226 | 0.0 | 0.0 | 0.00 | 0.00 | 0.00 | 79 | 1005.0 |
| 20260505121101 | 69 | 264 | 1.0 | 2.0 | 0.00 | 0.00 | 0.00 | 79 | 1005.1 |
| 20260505120557 | 69 | 215 | 0.0 | 1.0 | 0.00 | 0.00 | 0.00 | 78 | 1004.8 |
| 20260505120053 | 69 | 236 | 0.0 | 0.0 | 0.00 | 0.00 | 0.00 | 78 | 1004.7 |
| 20260505115548 | 69 | 238 | 0.0 | 0.0 | 0.00 | 0.00 | 0.00 | 77 | 1004.8 |
| 20260505115046 | 70 | 233 | 0.0 | 0.0 | 0.00 | 0.00 | 0.00 | 76 | 1004.7 |
| 20260505114542 | 70 | 226 | 0.0 | 0.0 | 0.00 | 0.00 | 0.00 | 75 | 1004.5 |
| 20260505114039 | 70 | 234 | 0.0 | 1.0 | 0.00 | 0.00 | 0.00 | 74 | 1004.6 |
| 20260505113535 | 71 | 234 | 0.0 | 0.0 | 0.00 | 0.00 | 0.00 | 74 | 1004.2 |
| 20260505113032 | 71 | 194 | 0.0 | 0.0 | 0.00 | 0.00 | 0.00 | 74 | 1004.3 |
| 20260505112523 | 71 | 319 | 1.0 | 2.0 | 0.00 | 0.00 | 0.00 | 73 | 1004.0 |
| 20260505112021 | 71 | 253 | 1.0 | 2.0 | 0.00 | 0.00 | 0.00 | 72 | 1003.8 |
| 20260505111519 | 72 | 191 | 1.0 | 1.0 | 0.00 | 0.00 | 0.00 | 72 | 1003.5 |
| 20260505111016 | 72 | 224 | 0.0 | 0.0 | 0.00 | 0.00 | 0.00 | 72 | 1003.6 |
| 20260505110513 | 72 | 228 | 0.0 | 0.0 | 0.00 | 0.00 | 0.00 | 72 | 1003.6 |
| 20260505101945 | 73 | 190 | 3.0 | 3.0 | 0.00 | 0.00 | 0.00 | 71 | 1002.7 |
| 20260505101443 | 73 | 175 | 1.0 | 2.0 | 0.00 | 0.00 | 0.00 | 71 | 1002.5 |
| 20260505100939 | 73 | 168 | 1.0 | 1.0 | 0.00 | 0.00 | 0.00 | 71 | 1002.5 |
| 20260505100437 | 73 | 233 | 1.0 | 1.0 | 0.00 | 0.00 | 0.00 | 71 | 1002.5 |
| 20260505095933 | 73 | 105 | 0.0 | 1.0 | 0.00 | 0.00 | 0.00 | 71 | 1002.6 |
| 20260505095430 | 73 | 145 | 0.0 | 1.0 | 0.00 | 0.00 | 0.00 | 71 | 1002.4 |
| 20260505094926 | 73 | 168 | 3.0 | 6.0 | 0.00 | 0.00 | 0.00 | 71 | 1002.3 |
| 20260505094423 | 73 | 160 | 3.0 | 4.0 | 0.00 | 0.00 | 0.00 | 71 | 1002.5 |
| 20260505093919 | 73 | 216 | 2.0 | 2.0 | 0.00 | 0.00 | 0.00 | 71 | 1002.3 |
| 20260505093416 | 73 | 217 | 2.0 | 3.0 | 0.00 | 0.00 | 0.00 | 71 | 1002.3 |
| 20260505092913 | 73 | 109 | 2.0 | 2.0 | 0.00 | 0.00 | 0.00 | 71 | 1002.5 |
| 20260505092411 | 73 | 114 | 2.0 | 3.0 | 0.00 | 0.00 | 0.00 | 71 | 1002.5 |
| 20260505091908 | 73 | 117 | 2.0 | 4.0 | 0.00 | 0.00 | 0.00 | 71 | 1002.3 |
| 20260505091406 | 73 | 193 | 2.0 | 3.0 | 0.00 | 0.00 | 0.00 | 71 | 1002.4 |
| 20260505090904 | 73 | 291 | 3.0 | 4.0 | 0.00 | 0.00 | 0.00 | 71 | 1002.6 |
| 20260505090402 | 73 | 230 | 1.0 | 2.0 | 0.00 | 0.00 | 0.00 | 71 | 1002.4 |
| 20260505085859 | 73 | 53 | 2.0 | 2.0 | 0.00 | 0.00 | 0.00 | 71 | 1002.4 |
| 20260505085357 | 73 | 218 | 1.0 | 2.0 | 0.00 | 0.00 | 0.00 | 70 | 1002.6 |
| 20260505084854 | 73 | 215 | 1.0 | 2.0 | 0.00 | 0.00 | 0.00 | 70 | 1002.7 |
| 20260505084352 | 73 | 224 | 1.0 | 1.0 | 0.00 | 0.00 | 0.00 | 71 | 1002.5 |
| 20260505083850 | 73 | 197 | 1.0 | 2.0 | 0.00 | 0.00 | 0.00 | 71 | 1002.7 |
| 20260505083347 | 73 | 205 | 1.0 | 2.0 | 0.00 | 0.00 | 0.00 | 71 | 1002.8 |
| 20260505082843 | 73 | 202 | 1.0 | 1.0 | 0.00 | 0.00 | 0.00 | 71 | 1002.9 |
| 20260505082339 | 73 | 183 | 2.0 | 2.0 | 0.00 | 0.00 | 0.00 | 71 | 1003.1 |
| 20260505081836 | 73 | 192 | 2.0 | 2.0 | 0.00 | 0.00 | 0.00 | 71 | 1002.9 |
| 20260505081333 | 73 | 125 | 2.0 | 2.0 | 0.00 | 0.00 | 0.00 | 71 | 1003.2 |
| 20260505080830 | 73 | 118 | 1.0 | 2.0 | 0.00 | 0.00 | 0.00 | 71 | 1003.1 |
| 20260505080325 | 73 | 134 | 2.0 | 2.0 | 0.00 | 0.00 | 0.00 | 71 | 1002.9 |
| 20260505075821 | 73 | 186 | 2.0 | 3.0 | 0.00 | 0.00 | 0.00 | 71 | 1003.2 |
| 20260505075319 | 73 | 110 | 2.0 | 4.0 | 0.00 | 0.00 | 0.00 | 71 | 1003.3 |
| 20260505074816 | 73 | 123 | 4.0 | 8.0 | 0.00 | 0.00 | 0.00 | 71 | 1003.3 |
| 20260505074313 | 73 | 212 | 0.0 | 1.0 | 0.00 | 0.00 | 0.00 | 71 | 1003.4 |
| 20260505073810 | 73 | 211 | 1.0 | 1.0 | 0.00 | 0.00 | 0.00 | 71 | 1003.3 |
| 20260505073308 | 73 | 217 | 1.0 | 2.0 | 0.00 | 0.00 | 0.00 | 71 | 1003.4 |
| 20260505072805 | 73 | 193 | 4.0 | 4.0 | 0.00 | 0.00 | 0.00 | 71 | 1003.3 |
| 20260505072301 | 73 | 230 | 4.0 | 8.0 | 0.00 | 0.00 | 0.00 | 71 | 1003.6 |
| 20260505071756 | 73 | 172 | 2.0 | 3.0 | 0.00 | 0.00 | 0.00 | 71 | 1003.5 |
| 20260505071253 | 73 | 179 | 0.0 | 0.0 | 0.00 | 0.00 | 0.00 | 71 | 1003.5 |
| 20260505070751 | 73 | 221 | 1.0 | 1.0 | 0.00 | 0.00 | 0.00 | 71 | 1003.6 |
| 20260505070247 | 73 | 55 | 5.0 | 9.0 | 0.00 | 0.00 | 0.00 | 70 | 1004.1 |
| 20260505065743 | 73 | 296 | 4.0 | 6.0 | 0.00 | 0.00 | 0.00 | 70 | 1004.0 |
| 20260505065240 | 73 | 129 | 1.0 | 1.0 | 0.00 | 0.00 | 0.00 | 70 | 1004.1 |
| 20260505064737 | 74 | 239 | 3.0 | 6.0 | 0.00 | 0.00 | 0.00 | 70 | 1004.0 |
| 20260505064235 | 74 | 261 | 3.0 | 4.0 | 0.00 | 0.00 | 0.00 | 69 | 1004.1 |
| 20260505063732 | 74 | 196 | 1.0 | 1.0 | 0.00 | 0.00 | 0.00 | 70 | 1003.9 |
| 20260505063228 | 74 | 126 | 4.0 | 8.0 | 0.00 | 0.00 | 0.00 | 69 | 1004.1 |
| 20260505062724 | 74 | 145 | 4.0 | 6.0 | 0.00 | 0.00 | 0.00 | 70 | 1004.3 |
| 20260505062222 | 74 | 210 | 4.0 | 6.0 | 0.00 | 0.00 | 0.00 | 69 | 1004.2 |
| 20260505061719 | 74 | 160 | 2.0 | 2.0 | 0.00 | 0.00 | 0.00 | 69 | 1004.4 |
| 20260505061217 | 74 | 105 | 2.0 | 3.0 | 0.00 | 0.00 | 0.00 | 69 | 1004.3 |
| 20260505060714 | 74 | 128 | 4.0 | 6.0 | 0.00 | 0.00 | 0.00 | 69 | 1004.2 |
| 20260505060211 | 73 | 106 | 3.0 | 3.0 | 0.00 | 0.00 | 0.00 | 70 | 1004.3 |
| 20260505055706 | 73 | 155 | 1.0 | 2.0 | 0.00 | 0.00 | 0.00 | 70 | 1004.4 |
| 20260505055203 | 74 | 222 | 2.0 | 3.0 | 0.00 | 0.00 | 0.00 | 69 | 1004.5 |
| 20260505054700 | 74 | 94 | 1.0 | 2.0 | 0.00 | 0.00 | 0.00 | 69 | 1004.6 |
| 20260505054158 | 74 | 136 | 3.0 | 3.0 | 0.00 | 0.00 | 0.00 | 69 | 1004.5 |
| 20260505053656 | 74 | 194 | 2.0 | 6.0 | 0.00 | 0.00 | 0.00 | 69 | 1004.7 |
| 20260505053152 | 74 | 116 | 1.0 | 1.0 | 0.00 | 0.00 | 0.00 | 69 | 1004.6 |
| 20260505052649 | 74 | 182 | 3.0 | 3.0 | 0.00 | 0.00 | 0.00 | 69 | 1004.6 |
| 20260505052146 | 74 | 171 | 1.0 | 2.0 | 0.00 | 0.00 | 0.00 | 69 | 1004.5 |
| 20260505051643 | 74 | 208 | 2.0 | 2.0 | 0.00 | 0.00 | 0.00 | 68 | 1004.8 |
| 20260505051142 | 74 | 230 | 2.0 | 3.0 | 0.00 | 0.00 | 0.00 | 68 | 1004.7 |
| 20260505050639 | 74 | 164 | 2.0 | 2.0 | 0.00 | 0.00 | 0.00 | 68 | 1005.0 |
| 20260505050137 | 74 | 170 | 4.0 | 6.0 | 0.00 | 0.00 | 0.00 | 68 | 1004.9 |
| 20260505041607 | 75 | 211 | 2.0 | 3.0 | 0.00 | 0.00 | 0.00 | 67 | 1005.3 |
| 20260505041104 | 75 | 141 | 3.0 | 4.0 | 0.00 | 0.00 | 0.00 | 67 | 1005.2 |
| 20260505040601 | 75 | 137 | 3.0 | 7.0 | 0.00 | 0.00 | 0.00 | 67 | 1005.4 |
| 20260505040058 | 75 | 305 | 3.0 | 6.0 | 0.00 | 0.00 | 0.00 | 67 | 1005.6 |
| 20260505035554 | 75 | 256 | 2.0 | 2.0 | 0.00 | 0.00 | 0.00 | 66 | 1005.4 |
| 20260505035051 | 75 | 161 | 2.0 | 4.0 | 0.00 | 0.00 | 0.00 | 66 | 1005.4 |
| 20260505034547 | 75 | 24 | 1.0 | 1.0 | 0.00 | 0.00 | 0.00 | 66 | 1005.3 |
| 20260505034044 | 76 | 163 | 3.0 | 4.0 | 0.00 | 0.00 | 0.00 | 65 | 1005.4 |
| 20260505033541 | 76 | 142 | 5.0 | 7.0 | 0.00 | 0.00 | 0.00 | 65 | 1005.4 |
| 20260505033040 | 76 | 123 | 4.0 | 6.0 | 0.00 | 0.00 | 0.00 | 65 | 1005.2 |
| 20260505032537 | 76 | 113 | 1.0 | 2.0 | 0.00 | 0.00 | 0.00 | 65 | 1005.2 |
| 20260505032033 | 76 | 128 | 1.0 | 1.0 | 0.00 | 0.00 | 0.00 | 65 | 1005.1 |
| 20260505031531 | 76 | 174 | 3.0 | 4.0 | 0.00 | 0.00 | 0.00 | 64 | 1005.2 |
| 20260505031027 | 76 | 78 | 4.0 | 6.0 | 0.00 | 0.00 | 0.00 | 64 | 1005.0 |
| 20260505030524 | 76 | 144 | 2.0 | 6.0 | 0.00 | 0.00 | 0.00 | 64 | 1005.1 |
| 20260505030020 | 76 | 150 | 2.0 | 7.0 | 0.00 | 0.00 | 0.00 | 64 | 1005.3 |
| 20260505025516 | 76 | 217 | 2.0 | 4.0 | 0.00 | 0.00 | 0.00 | 63 | 1005.0 |
| 20260505025015 | 77 | 169 | 3.0 | 4.0 | 0.00 | 0.00 | 0.00 | 63 | 1004.9 |
| 20260505024511 | 77 | 120 | 4.0 | 4.0 | 0.00 | 0.00 | 0.00 | 63 | 1004.7 |
| 20260505024009 | 77 | 194 | 4.0 | 6.0 | 0.00 | 0.00 | 0.00 | 63 | 1004.6 |
| 20260505023505 | 77 | 124 | 4.0 | 7.0 | 0.00 | 0.00 | 0.00 | 63 | 1004.8 |
| 20260505023003 | 77 | 84 | 5.0 | 7.0 | 0.00 | 0.00 | 0.00 | 62 | 1004.9 |
| 20260505022501 | 77 | 169 | 7.0 | 11.0 | 0.00 | 0.00 | 0.00 | 62 | 1004.7 |
| 20260505021958 | 77 | 139 | 7.0 | 9.0 | 0.00 | 0.00 | 0.00 | 62 | 1004.6 |
| 20260505021454 | 77 | 109 | 4.0 | 8.0 | 0.00 | 0.00 | 0.00 | 62 | 1004.6 |
| 20260505020950 | 77 | 242 | 4.0 | 6.0 | 0.00 | 0.00 | 0.00 | 62 | 1004.3 |
| 20260505020445 | 77 | 211 | 2.0 | 2.0 | 0.00 | 0.00 | 0.00 | 61 | 1004.5 |
| 20260505015942 | 78 | 135 | 4.0 | 8.0 | 0.00 | 0.00 | 0.00 | 61 | 1004.7 |
| 20260505015440 | 78 | 147 | 6.0 | 9.0 | 0.00 | 0.00 | 0.00 | 61 | 1004.5 |
| 20260505014937 | 78 | 126 | 5.0 | 15.0 | 0.00 | 0.00 | 0.00 | 60 | 1004.5 |
| 20260505014433 | 78 | 247 | 2.0 | 3.0 | 0.00 | 0.00 | 0.00 | 60 | 1004.5 |
| 20260505013930 | 78 | 162 | 4.0 | 9.0 | 0.00 | 0.00 | 0.00 | 59 | 1004.6 |
| 20260505013427 | 78 | 100 | 3.0 | 4.0 | 0.00 | 0.00 | 0.00 | 59 | 1004.5 |
| 20260505012925 | 79 | 87 | 4.0 | 9.0 | 0.00 | 0.00 | 0.00 | 58 | 1004.4 |
| 20260505012423 | 79 | 256 | 4.0 | 9.0 | 0.00 | 0.00 | 0.00 | 58 | 1004.6 |
| 20260505011919 | 79 | 227 | 1.0 | 1.0 | 0.00 | 0.00 | 0.00 | 58 | 1004.6 |
| 20260505011416 | 79 | 89 | 2.0 | 3.0 | 0.00 | 0.00 | 0.00 | 58 | 1004.7 |
| 20260505010912 | 79 | 227 | 3.0 | 6.0 | 0.00 | 0.00 | 0.00 | 58 | 1004.7 |
| 20260505010408 | 79 | 152 | 2.0 | 8.0 | 0.00 | 0.00 | 0.00 | 58 | 1004.8 |
| 20260505005904 | 79 | 136 | 4.0 | 6.0 | 0.00 | 0.00 | 0.00 | 57 | 1005.0 |
| 20260505005401 | 79 | 86 | 1.0 | 1.0 | 0.00 | 0.00 | 0.00 | 57 | 1004.7 |
| 20260505004859 | 79 | 292 | 3.0 | 4.0 | 0.00 | 0.00 | 0.00 | 57 | 1005.1 |
| 20260505004355 | 79 | 177 | 2.0 | 3.0 | 0.00 | 0.00 | 0.00 | 57 | 1004.8 |
| 20260505003852 | 80 | 224 | 2.0 | 2.0 | 0.00 | 0.00 | 0.00 | 56 | 1005.2 |
| 20260505003350 | 80 | 115 | 1.0 | 2.0 | 0.00 | 0.00 | 0.00 | 56 | 1005.0 |
| 20260505002845 | 80 | 153 | 1.0 | 1.0 | 0.00 | 0.00 | 0.00 | 56 | 1004.9 |
| 20260505002342 | 80 | 202 | 3.0 | 4.0 | 0.00 | 0.00 | 0.00 | 55 | 1005.0 |
| 20260505001841 | 80 | 176 | 1.0 | 2.0 | 0.00 | 0.00 | 0.00 | 55 | 1005.0 |
| 20260505001337 | 80 | 88 | 3.0 | 6.0 | 0.00 | 0.00 | 0.00 | 55 | 1005.1 |
| 20260505000835 | 81 | 232 | 2.0 | 3.0 | 0.00 | 0.00 | 0.00 | 54 | 1005.1 |
| 20260505000332 | 81 | 192 | 2.0 | 3.0 | 0.00 | 0.00 | 0.00 | 54 | 1005.3 |
| 20260504235829 | 81 | 194 | 2.0 | 3.0 | 0.00 | 0.00 | 0.00 | 54 | 1005.4 |
| 20260504235326 | 81 | 182 | 6.0 | 9.0 | 0.00 | 0.00 | 0.00 | 54 | 1005.2 |
| 20260504234822 | 81 | 132 | 5.0 | 8.0 | 0.00 | 0.00 | 0.00 | 54 | 1005.2 |
| 20260504234320 | 81 | 288 | 2.0 | 3.0 | 0.00 | 0.00 | 0.00 | 54 | 1005.4 |
| 20260504233816 | 81 | 162 | 4.0 | 9.0 | 0.00 | 0.00 | 0.00 | 53 | 1005.6 |
| 20260504233312 | 81 | 184 | 2.0 | 3.0 | 0.00 | 0.00 | 0.00 | 53 | 1005.5 |
| 20260504232809 | 81 | 145 | 1.0 | 2.0 | 0.00 | 0.00 | 0.00 | 54 | 1005.5 |
| 20260504232306 | 81 | 120 | 6.0 | 9.0 | 0.00 | 0.00 | 0.00 | 53 | 1005.6 |
| 20260504231803 | 81 | 200 | 3.0 | 4.0 | 0.00 | 0.00 | 0.00 | 53 | 1005.8 |
| 20260504231259 | 82 | 184 | 3.0 | 4.0 | 0.00 | 0.00 | 0.00 | 52 | 1005.8 |
| 20260504230755 | 82 | 141 | 4.0 | 4.0 | 0.00 | 0.00 | 0.00 | 52 | 1005.8 |
| 20260504230254 | 82 | 151 | 6.0 | 8.0 | 0.00 | 0.00 | 0.00 | 52 | 1006.1 |